Driggs, ID

12:04 AM MDT on June 24, 2017 (GMT -0600)
Driggs

Weather History for KDIJ - June, 2013

Change the Weather History Date:

Saturday, June 15, 2013

  Actual Average (KJAC) Record (KJAC)
Temperature  
Mean Temperature 50 °F -  
Max Temperature 72 °F 67 °F 82 °F (1987)
Min Temperature 27 °F 34 °F 25 °F (1976)
Degree Days  
Heating Degree Days 16    
Moisture  
Dew Point 28 °F    
Average Humidity 46    
Maximum Humidity 85    
Minimum Humidity 12    
Precipitation  
Precipitation 0.00 in - - ()
Sea Level Pressure  
Sea Level Pressure 30.02 in    
Wind  
Wind Speed 3 mph (WSW)    
Max Wind Speed 12 mph    
Max Gust Speed 17 mph    
Visibility 10 miles    
Events      
Averages and records for this station are not official NWS values.
T = Trace of Precipitation, MM = Missing Value Source: NWS Daily Summary

Daily Weather History Graph

Daily Weather History Graph

Search for Another Location

Airport or City:

Trip Planner

Search our weather history database for the weather conditions in past years. The results will help you decide how hot, cold, wet, or windy it might be!

Date:

Astronomy

Jun. 15, 2013 Rise Set
Actual Time 5:41 AM MDT 9:08 PM MDT
Civil Twilight 5:05 AM MDT 9:44 PM MDT
Nautical Twilight 4:18 AM MDT 10:31 PM MDT
Astronomical Twilight 3:19 AM MDT 11:31 PM MDT
Moon 12:32 PM MDT (6/15) 12:34 AM MDT (6/15)
Length of Visible Light 16h 38m
Length of Day
15h 26m
Waxing Crescent, 40% of the Moon is Illuminated
Jun 15
Waxing Crescent
Jun 16
First Quarter
Jun 23
Full
Jun 29
Last Quarter
Jul 8
New

Hourly Weather History & Observations

Time (MDT) Temp. Windchill Dew Point Humidity Pressure Visibility Wind Dir Wind Speed Gust Speed Precip Events Conditions
12:56 AM 36.9 °F - 29.1 °F 74% 30.12 in 10.0 mi Calm Calm - N/A   Clear
1:56 AM 34.0 °F - 28.0 °F 79% 30.11 in 10.0 mi Calm Calm - N/A   Clear
2:56 AM 31.1 °F - 27.1 °F 85% 30.10 in 10.0 mi Calm Calm - N/A   Clear
3:56 AM 32.9 °F - 27.1 °F 79% 30.08 in 10.0 mi Calm Calm - N/A   Clear
4:56 AM 31.1 °F 27.7 °F 27.1 °F 85% 30.08 in 10.0 mi SSW 3.5 mph - N/A   Clear
5:56 AM 27.1 °F - 23.0 °F 84% 30.10 in 10.0 mi Calm Calm - N/A   Clear
6:56 AM 34.9 °F - 29.1 °F 79% 30.07 in 10.0 mi Calm Calm - N/A   Clear
7:56 AM 43.9 °F - 31.1 °F 61% 30.05 in 10.0 mi Calm Calm - N/A   Clear
8:56 AM 50.9 °F - 27.1 °F 40% 30.05 in 10.0 mi Calm Calm - N/A   Clear
9:56 AM 55.9 °F - 26.1 °F 32% 30.04 in 10.0 mi Variable 3.5 mph - N/A   Clear
10:56 AM 59.9 °F - 25.2 °F 26% 30.03 in 10.0 mi Variable 4.6 mph - N/A   Clear
11:56 AM 63.9 °F - 24.1 °F 22% 30.01 in 10.0 mi NW 5.8 mph - N/A   Clear
12:56 PM 66.9 °F - 24.1 °F 20% 29.99 in 10.0 mi West 6.9 mph - N/A   Clear
1:56 PM 68.0 °F - 17.1 °F 14% 29.99 in 10.0 mi Variable 6.9 mph - N/A   Clear
2:56 PM 70.0 °F - 15.1 °F 12% 29.98 in 10.0 mi SSW 8.1 mph 17.3 mph N/A   Clear
3:56 PM 70.9 °F - 21.0 °F 15% 29.96 in 10.0 mi ESE 4.6 mph 17.3 mph N/A   Clear
4:56 PM 72.9 °F - 24.1 °F 16% 29.96 in 10.0 mi SW 11.5 mph - N/A   Clear
5:56 PM 72.9 °F - 28.0 °F 19% 29.97 in 10.0 mi WNW 6.9 mph - N/A   Clear
6:56 PM 70.9 °F - 36.0 °F 28% 29.94 in 10.0 mi North 10.4 mph - N/A   Clear
7:56 PM 68.0 °F - 34.9 °F 29% 29.94 in 10.0 mi NNE 9.2 mph - N/A   Clear
8:56 PM 57.9 °F - 36.9 °F 45% 29.95 in 10.0 mi ENE 9.2 mph - N/A   Clear
9:56 PM 50.9 °F - 34.0 °F 52% 29.97 in 10.0 mi East 10.4 mph - N/A   Clear
10:56 PM 52.0 °F - 32.9 °F 48% 29.97 in 10.0 mi SSW 6.9 mph - N/A   Clear
11:56 PM 48.9 °F - 32.9 °F 54% 29.95 in 10.0 mi Calm Calm - N/A   Clear